SKYTERRA 1

Last updated on Sun Jun 21 2026 00:03:04 GMT+0000 (Coordinated Universal Time)

1 37218U 10061A 26171.35461541 -.00000124 00000+0 00000+0 0 9991 2 37218 5.1327 50.8589 0002304 12.9622 231.0714 1.00272186 57228
UTC large
Height (km)
Speed (km/s)
/
Latitude / Longitude
Inclination (degrees)
Orbital Period (minutes)
Azimuth
Elevation
Range (km)
Doppler Factor

Next 0 passes for location: London (51.5072 / 0.1276)

No passes found over London.
SKYTERRA 1